This demonstration page uses our WeatherBlox Daily Observations layout. Learn more.

Left ArrowRight Arrow

Hourly Observations for September 7, 2018

Temp ( °F °C ) Dew Point ( °F °C ) Humidity (%) Winds ( mph kmh ) Pressure ( in mb ) Visibility ( mi km ) Precip ( " mm )
12:53 am 00:53 Mostly Cloudy with Light Rain 70 21.1 68 20 93 93 WNW 5 7 30.04 1017 10 16 0.01 0.25
1:53 am 01:53 Mostly Clear 70 21.1 69 20.6 97 97 NW 7 11 30.01 1016 10 16 0.00 0.03
2:53 am 02:53 Mostly Clear 70 21.1 68 20 93 93 NNW 6 9 30.01 1016 10 16 0.00 0.00
3:10 am 03:10 Mostly Cloudy 70 21.1 68 20 93 93 N 5 7 30.00 1016 9 14 0.00 0.00
3:18 am 03:18 Mostly Cloudy 70 21.1 69 20.6 97 97 N 5 7 30.00 1016 9 14 0.00 0.00
3:53 am 03:53 Cloudy 70 21.1 69 20.6 97 97 NW 5 7 30.01 1016 7 11 0.00 0.00
4:18 am 04:18 Cloudy 70 21.1 69 20.6 97 97 N 3 6 30.00 1016 7 11 0.00 0.00
4:53 am 04:53 Cloudy 70 21.1 69 20.6 97 97 N 3 6 30.01 1016 7 11 0.00 0.00
5:53 am 05:53 Cloudy 70 21.1 69 20.6 97 97 N 5 7 29.99 1016 7 11 0.00 0.00
6:53 am 06:53 Cloudy 70 21.1 69 20.6 97 97 NNE 5 7 29.99 1016 7 11 0.00 0.00
7:53 am 07:53 Cloudy with Light Rain 70 21.1 69 20.6 97 97 NE 3 6 30.00 1016 6 10 0.00 0.03
8:38 am 08:38 Cloudy with Light Rain 70 21.1 69 20.6 97 97 E 6 9 30.00 1016 5 8 0.02 0.51
8:53 am 08:53 Cloudy with Light Rain 70 21.1 69 20.6 97 97 E 9 15 30.01 1016 6 10 0.02 0.51
9:14 am 09:14 Cloudy with Light Rain 69 20.6 68 20 96 96 E 6 9 30.00 1016 4 6 0.03 0.76
9:45 am 09:45 Cloudy with Light Rain 69 20.6 68 20 96 96 ESE 3 6 30.00 1016 6 10 0.07 1.78
9:53 am 09:53 Cloudy with Light Rain 70 21.1 69 20.6 97 97 E 5 7 30.02 1017 9 14 0.07 1.78
10:53 am 10:53 Cloudy with Light Rain 70 21.1 67 19.4 90 90 NE 6 9 30.03 1017 10 16 0.03 0.76
11:46 am 11:46 Cloudy with Light Rain 72 22.2 69 20.6 91 91 NE 7 11 30.00 1016 10 16 0.02 0.51
11:53 am 11:53 Cloudy with Light Rain 72 22.2 69 20.6 91 91 NNE 7 11 30.02 1017 10 16 0.02 0.51
12:53 pm 12:53 Mostly Cloudy with Heavy Rain 72 22.2 69 20.6 91 91 NE 9 15 30.01 1016 3 4 0.12 3.05
12:58 pm 12:58 Cloudy with Heavy Rain 71 21.7 69 20.6 94 94 ENE 10 17 30.00 1016 1 2 0.12 3.05
1:06 pm 13:06 Cloudy with Heavy Rain 69 20.6 67 19.4 93 93 E 6 9 30.00 1016 1 1 0.25 6.35
1:09 pm 13:09 Cloudy with Heavy Rain 69 20.6 68 20 96 96 E 5 7 30.00 1016 1 2 0.28 7.11
1:21 pm 13:21 Cloudy with Light Rain 71 21.7 69 20.6 94 94 ENE 5 7 30.00 1016 3 5 0.32 8.13
1:42 pm 13:42 Cloudy with Light Rain 71 21.7 69 20.6 94 94 NNE 17 28 30.00 1016 8 13 0.33 8.38
1:53 pm 13:53 Cloudy with Heavy Rain 69 20.6 68 20 96 96 ENE 15 24 30.01 1016 3 5 0.38 9.65
2:00 pm 14:00 Cloudy with Rain 69 20.6 68 20 96 96 ENE 16 26 30.00 1016 3 4 0.04 1.02
2:05 pm 14:05 Cloudy with Heavy Rain 69 20.6 68 20 96 96 ENE 12 19 30.00 1016 2 3 0.08 2.03
2:11 pm 14:11 Cloudy with Light Rain 68 20 67 19.4 96 96 NE 18 30 30.03 1017 2 3 0.09 2.29
2:24 pm 14:24 Cloudy with Heavy Rain 66 18.9 65 18.3 96 96 NE 17 28 30.03 1017 2 3 0.16 4.06
6:53 pm 18:53 Mostly Sunny 72 22.2 67 19.4 84 84 NE 12 19 29.96 1015 10 16 0.00 0.00
7:53 pm 19:53 Mostly Cloudy 71 21.7 65 18.3 81 81 NNE 9 15 29.97 1015 10 16 0.00 0.00
8:53 pm 20:53 Mostly Clear 70 21.1 67 19.4 90 90 N 5 7 29.97 1015 10 16 0.00 0.00
9:40 pm 21:40 Mostly Cloudy 69 20.6 66 18.9 90 90 N 9 15 30.00 1016 10 16 0.00 0.00
9:49 pm 21:49 Partly Cloudy 70 21 66 19 88 88 N 9 15 30.00 1016 10 16 0.00 0.00
9:53 pm 21:53 Partly Cloudy 69 20.6 66 18.9 90 90 N 8 13 30.01 1016 10 16 0.00 0.00
10:53 pm 22:53 Mostly Clear 68 20 66 18.9 93 93 NNE 6 9 30.02 1017 10 16 0.00 0.00
11:53 pm 23:53 Mostly Clear 68 20 66 18.9 93 93 N 7 11 30.02 1017 10 16 0.00 0.00

Powered by AerisWeather